Weather History for Fryeburg, ME

Change the Weather History Date:

Tuesday, December 18, 2012

  Actual Average Record
Temperature  
Mean Temperature 34 °F -  
Max Temperature 37 °F 33 °F 50 °F (2003)
Min Temperature 30 °F 12 °F -9 °F (2007)
Degree Days  
Heating Degree Days 32    
Moisture  
Dew Point 34 °F    
Average Humidity 97    
Maximum Humidity 100    
Minimum Humidity 93    
Precipitation  
Precipitation 0.68 in - - ()
Sea Level Pressure  
Sea Level Pressure 29.63 in    
Wind  
Wind Speed 7 mph (North)    
Max Wind Speed 10 mph    
Max Gust Speed -    
Visibility 3 miles    
Events Rain    
Averages and records for this station are not official NWS values.
T = Trace of Precipitation, MM = Missing Value Source: NWS Daily Summary

Daily Weather History Graph

Daily Weather History Graph

Search for Another Location

Airport:

Trip Planner

Search our weather history database for the weather conditions in past years. The results will help you decide how hot, cold, wet, or windy it might be!

Date:

Astronomy

Dec. 18, 2012 Rise Set
Actual Time 7:13 AM EST 4:07 PM EST
Civil Twilight 6:40 AM EST 4:40 PM EST
Nautical Twilight 6:04 AM EST 5:17 PM EST
Astronomical Twilight 5:29 AM EST 5:52 PM EST
Moon 10:41 AM EST (12/18) 10:42 PM EST (12/18)
Length of Visible Light 9h 59m
Length of Day
8h 53m
Waxing Crescent, 34% of the Moon is Illuminated
Dec 18
Waxing Crescent
Dec 20
First Quarter
Dec 28
Full
Jan 4
Last Quarter
Jan 11
New

Hourly Weather History & Observations

Time (EST) Temp. Windchill Dew Point Humidity Pressure Visibility Wind Dir Wind Speed Gust Speed Precip Events Conditions
12:50 AM 30.2 °F 23.4 °F 30.2 °F 100% 29.91 in 3.0 mi North 6.9 mph - 0.01 in Rain Light Freezing Rain
12:54 AM 30.9 °F 25.2 °F 30.0 °F 96% 29.93 in 3.0 mi North 5.8 mph - 0.01 in Rain Light Freezing Rain
1:11 AM 30.2 °F 23.4 °F 30.2 °F 100% 29.90 in 3.0 mi North 6.9 mph - 0.00 in Rain Light Freezing Rain
1:25 AM 30.2 °F 23.4 °F 30.2 °F 100% 29.88 in 3.0 mi North 6.9 mph - N/A Rain Light Freezing Rain
1:54 AM 32.0 °F 24.8 °F 30.9 °F 96% 29.89 in 3.0 mi North 8.1 mph - N/A Rain Light Freezing Rain
2:21 AM 32.0 °F 26.4 °F 30.2 °F 93% 29.86 in 4.0 mi North 5.8 mph - 0.00 in   Overcast
2:38 AM 32.0 °F 26.4 °F 30.2 °F 93% 29.85 in 2.5 mi North 5.8 mph - 0.00 in   Overcast
2:54 AM 32.0 °F 25.6 °F 30.9 °F 96% 29.86 in 2.5 mi North 6.9 mph - 0.00 in   Overcast
3:50 AM 32.0 °F 25.6 °F 32.0 °F 100% 29.80 in 2.5 mi North 6.9 mph - 0.05 in   Overcast
3:54 AM 32.0 °F 25.6 °F 32.0 °F 100% 29.82 in 2.5 mi North 6.9 mph - 0.05 in   Overcast
4:03 AM 33.8 °F 27.0 °F 32.0 °F 93% 29.79 in 3.0 mi North 8.1 mph - 0.01 in Rain Light Rain
4:13 AM 33.8 °F 27.7 °F 32.0 °F 93% 29.78 in 2.5 mi North 6.9 mph - 0.02 in Rain Light Rain
4:26 AM 33.8 °F 27.7 °F 32.0 °F 93% 29.78 in 2.5 mi North 6.9 mph - 0.03 in Rain Light Rain
4:34 AM 33.8 °F 27.7 °F 32.0 °F 93% 29.78 in 3.0 mi North 6.9 mph - 0.04 in Rain Light Rain
4:38 AM 33.8 °F 27.7 °F 32.0 °F 93% 29.77 in 3.0 mi North 6.9 mph - 0.04 in Rain Light Freezing Rain
4:54 AM 33.1 °F 26.9 °F 32.0 °F 96% 29.79 in 2.5 mi North 6.9 mph - 0.06 in Rain Light Freezing Rain
5:02 AM 33.8 °F 27.7 °F 32.0 °F 93% 29.77 in 3.0 mi North 6.9 mph - 0.00 in Rain Light Freezing Rain
5:33 AM 33.8 °F 27.7 °F 32.0 °F 93% 29.75 in 3.0 mi North 6.9 mph - 0.05 in Rain Light Freezing Rain
5:39 AM 33.8 °F 28.6 °F 32.0 °F 93% 29.75 in 3.0 mi North 5.8 mph - 0.06 in Rain Light Freezing Rain
6:04 AM 33.8 °F 26.4 °F 32.0 °F 93% 29.73 in 4.0 mi North 9.2 mph - 0.01 in Rain Light Rain
7:54 AM 34.0 °F 28.0 °F 33.1 °F 96% 29.70 in 2.5 mi North 6.9 mph - 0.06 in Rain Light Rain
8:10 AM 33.8 °F 27.7 °F 33.8 °F 100% 29.68 in 2.0 mi North 6.9 mph - 0.01 in Rain Light Rain
8:17 AM 33.8 °F 27.7 °F 33.8 °F 100% 29.68 in 1.8 mi North 6.9 mph - 0.01 in Rain Light Rain
8:28 AM 33.8 °F 27.7 °F 33.8 °F 100% 29.67 in 1.8 mi North 6.9 mph - 0.02 in Rain Light Rain
8:35 AM 33.8 °F 27.7 °F 33.8 °F 100% 29.67 in 2.0 mi North 6.9 mph - 0.03 in Rain Light Rain
8:54 AM 34.0 °F 28.8 °F 34.0 °F 100% 29.68 in 2.0 mi North 5.8 mph - 0.05 in Rain Light Rain
9:01 AM 35.6 °F 29.9 °F 33.8 °F 93% 29.66 in 2.0 mi North 6.9 mph - 0.00 in Rain Light Rain
9:23 AM 33.8 °F 29.6 °F 33.8 °F 100% 29.66 in 3.0 mi North 4.6 mph - 0.03 in Rain Light Rain
9:54 AM 34.0 °F 27.2 °F 33.1 °F 96% 29.66 in 4.0 mi North 8.1 mph - 0.09 in Rain Light Rain
10:19 AM 33.8 °F 26.4 °F 33.8 °F 100% 29.63 in 6.0 mi North 9.2 mph - 0.02 in Rain Light Rain
10:54 AM 34.0 °F 28.0 °F 33.1 °F 96% 29.63 in 3.0 mi North 6.9 mph - 0.07 in Rain Light Rain
11:14 AM 35.6 °F 29.9 °F 33.8 °F 93% 29.60 in 4.0 mi North 6.9 mph - 0.01 in Rain Light Rain
11:26 AM 35.6 °F 29.9 °F 33.8 °F 93% 29.60 in 3.0 mi North 6.9 mph - 0.02 in Rain Light Rain
11:35 AM 35.6 °F 29.9 °F 33.8 °F 93% 29.59 in 2.0 mi North 6.9 mph - 0.02 in Rain Light Rain
11:43 AM 35.6 °F 29.2 °F 33.8 °F 93% 29.59 in 1.8 mi North 8.1 mph - 0.03 in Rain Light Rain
11:54 AM 35.1 °F 29.3 °F 34.0 °F 96% 29.60 in 1.2 mi North 6.9 mph - 0.04 in Rain Light Rain
11:58 AM 35.6 °F 29.2 °F 33.8 °F 93% 29.58 in 1.5 mi North 8.1 mph - 0.00 in Rain Light Rain
12:19 PM 35.6 °F 28.6 °F 33.8 °F 93% 29.56 in 1.8 mi North 9.2 mph - 0.01 in Rain Light Rain
12:41 PM 35.6 °F 29.9 °F 33.8 °F 93% 29.55 in 2.0 mi North 6.9 mph - 0.03 in Rain Light Rain
12:49 PM 35.6 °F 29.2 °F 33.8 °F 93% 29.54 in 2.5 mi North 8.1 mph - 0.03 in Rain Light Rain
12:54 PM 36.0 °F 30.3 °F 35.1 °F 97% 29.56 in 3.0 mi North 6.9 mph - 0.03 in Rain Light Rain
1:05 PM 35.6 °F 28.0 °F 35.6 °F 100% 29.54 in 2.0 mi North 10.4 mph - 0.01 in Rain Light Rain
1:08 PM 35.6 °F 28.6 °F 35.6 °F 100% 29.53 in 1.8 mi North 9.2 mph - 0.02 in Rain Light Rain
1:35 PM 35.6 °F 28.0 °F 35.6 °F 100% 29.52 in 2.0 mi North 10.4 mph - 0.03 in Rain Light Rain
1:42 PM 35.6 °F 28.6 °F 35.6 °F 100% 29.52 in 2.0 mi North 9.2 mph - 0.03 in Rain Light Rain
1:54 PM 36.0 °F 29.6 °F 35.1 °F 97% 29.54 in 2.0 mi North 8.1 mph - 0.04 in Rain Light Rain
2:06 PM 35.6 °F 29.2 °F 35.6 °F 100% 29.52 in 1.8 mi North 8.1 mph - 0.00 in Rain Light Rain
2:35 PM 35.6 °F 28.6 °F 35.6 °F 100% 29.51 in 2.5 mi North 9.2 mph - 0.02 in Rain Light Rain
2:54 PM 36.0 °F 30.3 °F 35.1 °F 97% 29.53 in 2.5 mi North 6.9 mph - 0.02 in Rain Light Rain
3:54 PM 36.0 °F 29.6 °F 36.0 °F 100% 29.52 in 1.5 mi North 8.1 mph - 0.03 in Rain Light Rain
4:07 PM 35.6 °F 29.2 °F 35.6 °F 100% 29.50 in 2.0 mi North 8.1 mph - 0.00 in Rain Light Rain
4:21 PM 37.4 °F 31.4 °F 35.6 °F 93% 29.50 in 3.0 mi North 8.1 mph - 0.00 in Rain Light Rain
4:29 PM 35.6 °F 28.6 °F 35.6 °F 100% 29.49 in 3.0 mi North 9.2 mph - 0.01 in Rain Light Rain
4:44 PM 35.6 °F 28.0 °F 35.6 °F 100% 29.49 in 2.5 mi North 10.4 mph - 0.01 in Rain Light Rain
4:51 PM 35.6 °F 29.2 °F 35.6 °F 100% 29.49 in 3.0 mi North 8.1 mph - 0.01 in Rain Light Rain
4:54 PM 36.0 °F 28.5 °F 35.1 °F 97% 29.50 in 3.0 mi North 10.4 mph - 0.01 in Rain Light Rain
5:03 PM 35.6 °F 29.9 °F 35.6 °F 100% 29.48 in 3.0 mi North 6.9 mph - 0.00 in Rain Light Rain
5:40 PM 35.6 °F 28.0 °F 35.6 °F 100% 29.48 in 2.5 mi North 10.4 mph - 0.02 in Rain Light Rain
5:50 PM 35.6 °F 29.2 °F 35.6 °F 100% 29.48 in 3.0 mi North 8.1 mph - 0.02 in Rain Light Rain
5:54 PM 36.0 °F 29.0 °F 35.1 °F 97% 29.49 in 3.0 mi North 9.2 mph - 0.02 in Rain Light Rain
6:11 PM 35.6 °F 29.2 °F 35.6 °F 100% 29.48 in 3.0 mi North 8.1 mph - 0.00 in Rain Light Rain
6:54 PM 36.0 °F 29.6 °F 35.1 °F 97% 29.49 in 4.0 mi North 8.1 mph - 0.01 in   Overcast
7:54 PM 36.0 °F 30.3 °F 35.1 °F 97% 29.49 in 4.0 mi North 6.9 mph - 0.03 in Rain Light Rain
8:54 PM 36.0 °F 30.3 °F 35.1 °F 97% 29.47 in 4.0 mi North 6.9 mph - 0.03 in Rain Light Rain
9:54 PM 36.0 °F 29.0 °F 35.1 °F 97% 29.47 in 3.0 mi North 9.2 mph - 0.01 in Rain Light Rain
10:38 PM 35.6 °F 28.6 °F 35.6 °F 100% 29.45 in 4.0 mi North 9.2 mph - 0.01 in Rain Light Rain
10:54 PM 36.0 °F 29.0 °F 35.1 °F 97% 29.47 in 4.0 mi NNW 9.2 mph - 0.01 in Rain Light Rain
11:54 PM 36.0 °F 31.1 °F 35.1 °F 97% 29.45 in 4.0 mi North 5.8 mph - 0.01 in Rain Light Rain